Location: Unspecified
(44.0704°N, 88.6889°W)
Time: 18:35:01
(UTC+02:00)

CZ-3 Stage 3 - Pass Details

Date: 24 March 2019
Orbit: 490 x 34701 km, 30.5° (Epoch: 18 April)

Event Time Altitude Azimuth Distance (km) Brightness Sun altitude
Exits shadow 11:11:54 16° 223° (SW) 4,754 6.0 -18.2°
Maximum altitude 11:28:28 58° 149° (SSE) 7,134 7.4 -15.4°
Drops below altitude 10° 20:10:49 10° 163° (SSE) 17,513 10.0 44.7°
Sets 20:25:27 0° 157° (SSE) 15,196 9.5 43.5°
